"Timestamp","TZ","WindDir_Mean (deg)","WindSpd_Mean (km/h)","WindSpd_Min (km/h)","WindSpd_Max (km/h)","Temp_Mean (deg)","RH_Mean (%)","MSLP_Mean (hPa)","Rain_Acc (mm)","Rain_Intensity (mm/h)","Hail_Acc (hits/cm2)","Hail_Intensity (hits/cm2hr)","Solar_Mean (W/m2)"
2018/06/20 00:00:00.002,n,179,2.88,2.52,3.24,12,49.7,1020.52,0,0,0,0,0.022659
2018/06/20 00:01:00.000,n,205,2.52,1.8,2.88,11.9,49.5,1020.62,0,0,0,0,0.020943
2018/06/20 00:02:00.000,n,230,3.24,2.52,4.32,11.9,49,1020.52,0,0,0,0,0.025291
2018/06/20 00:03:00.000,n,236,1.8,1.08,2.52,12,49,1020.52,0,0,0,0,0.023537
2018/06/20 00:04:00.000,n,194,3.96,3.24,4.32,12,49.4,1020.52,0,0,0,0,0.025291
2018/06/20 00:05:00.005,n,203,5.04,4.68,5.4,12,49.2,1020.52,0,0,0,0,0.022659
2018/06/20 00:06:00.002,n,240,2.16,1.8,3.96,12.1,49.4,1020.52,0,0,0,0,0.020027
2018/06/20 00:07:00.000,n,230,3.96,3.96,4.32,12.1,48.9,1020.52,0,0,0,0,0.020943
2018/06/20 00:08:00.012,n,246,1.08,0.72,1.08,12.1,49.5,1020.52,0,0,0,0,0.020027
2018/06/20 00:09:00.010,n,255,4.32,3.96,4.68,12.1,49.2,1020.52,0,0,0,0,0.027008
2018/06/20 00:10:00.000,n,200,2.88,2.52,3.6,12,49.1,1020.52,0,0,0,0,0.021782
2018/06/20 00:11:00.000,n,203,1.8,1.8,2.52,12,49.3,1020.52,0,0,0,0,0.030518
2018/06/20 00:12:00.000,n,109,0.36,0.36,0.36,12,49.8,1020.52,0,0,0,0,0.033989
2018/06/20 00:13:00.000,n,185,0.72,0.36,1.44,11.9,49.8,1020.62,0,0,0,0,0.032234
2018/06/20 00:14:00.000,n,129,0.36,0.36,0.72,11.8,49.9,1020.62,0,0,0,0,0.032234
2018/06/20 00:15:00.007,n,147,4.68,4.68,5.04,11.8,50.4,1020.62,0,0,0,0,0.030518
2018/06/20 00:16:00.005,n,155,4.32,4.32,4.68,11.8,50.5,1020.62,0,0,0,0,0.030518
2018/06/20 00:17:00.001,n,155,4.68,3.96,5.4,11.7,50.9,1020.62,0,0,0,0,0.028763
2018/06/20 00:18:00.015,n,158,2.88,2.16,3.96,11.7,51.2,1020.62,0,0,0,0,0.031357
2018/06/20 00:19:00.000,n,170,2.88,2.52,3.24,11.6,51.5,1020.62,0,0,0,0,0.031357
2018/06/20 00:20:00.000,n,174,4.32,3.96,5.04,11.6,51.8,1020.62,0,0,0,0,0.032234
2018/06/20 00:21:00.006,n,145,2.88,1.44,3.6,11.6,52.1,1020.62,0,0,0,0,0.030518
2018/06/20 00:22:00.002,n,188,1.44,0.72,2.16,11.6,52.4,1020.62,0,0,0,0,0.030518
2018/06/20 00:23:00.000,n,138,2.16,1.8,2.88,11.5,52.6,1020.62,0,0,0,0,0.033112
2018/06/20 00:24:00.000,n,195,2.16,1.44,2.88,11.5,52.4,1020.62,0,0,0,0,0.027008
2018/06/20 00:25:00.011,n,140,3.6,1.44,4.68,11.5,53.2,1020.62,0,0,0,0,0.028763
2018/06/20 00:26:00.009,n,172,4.68,3.96,5.04,11.5,53.7,1020.62,0,0,0,0,0.027885
2018/06/20 00:27:00.006,n,162,3.96,3.6,4.32,11.5,53.9,1020.62,0,0,0,0,0.027885
2018/06/20 00:28:00.000,n,201,1.44,1.08,1.8,11.4,53.9,1020.62,0,0,0,0,0.025253
2018/06/20 00:29:00.000,n,158,0.36,0.36,0.72,11.4,54,1020.62,0,0,0,0,0.027885
2018/06/20 00:30:00.000,n,142,1.8,1.8,2.16,11.4,53.9,1020.62,0,0,0,0,0.026169
2018/06/20 00:31:00.000,n,207,3.24,3.24,3.6,11.4,53.8,1020.62,0,0,0,0,0.030518
2018/06/20 00:32:00.007,n,170,2.52,2.16,2.52,11.3,53.8,1020.52,0,0,0,0,0.027885
2018/06/20 00:33:00.004,n,271,2.52,2.16,2.88,11.3,53.7,1020.52,0,0,0,0,0.026169
2018/06/20 00:34:00.002,n,166,1.08,0.72,1.8,11.3,54.1,1020.52,0,0,0,0,0.027008
2018/06/20 00:35:00.000,n,210,2.88,2.52,3.24,11.3,54.3,1020.52,0,0,0,0,0.026169
2018/06/20 00:36:00.013,n,189,1.44,1.08,1.8,11.3,54.3,1020.52,0,0,0,0,0.027885
2018/06/20 00:37:00.000,n,191,1.44,0.72,1.8,11.3,54.2,1020.52,0,0,0,0,0.023537
2018/06/20 00:38:00.000,n,118,1.44,0.36,1.8,11.3,54.2,1020.52,0,0,0,0,0.026169
2018/06/20 00:39:00.004,n,153,1.44,0.72,1.8,11.3,54.5,1020.52,0,0,0,0,0.024414
2018/06/20 00:40:00.001,n,207,3.24,3.24,3.6,11.2,54.2,1020.52,0,0,0,0,0.026169
2018/06/20 00:41:00.000,n,208,4.32,3.6,5.04,11.2,54,1020.52,0,0,0,0,0.031357
2018/06/20 00:42:00.000,n,239,4.68,3.96,5.76,11.2,53.7,1020.52,0,0,0,0,0.025253
2018/06/20 00:43:00.008,n,126,0.72,0.36,1.44,11.2,54.1,1020.52,0,0,0,0,0.020905
2018/06/20 00:44:00.005,n,150,3.6,2.88,4.32,11.3,53.8,1020.52,0,0,0,0,0.026169
2018/06/20 00:45:00.002,n,156,4.68,4.32,5.04,11.3,54.7,1020.52,0,0,0,0,0.029602
2018/06/20 00:46:00.000,n,160,6.48,5.4,6.84,11.2,55.3,1020.52,0,0,0,0,0.025253
2018/06/20 00:47:00.000,n,170,3.6,2.88,3.96,11.1,55.3,1020.52,0,0,0,0,0.034828
2018/06/20 00:48:00.000,n,188,1.8,1.44,2.16,11.1,55.4,1020.52,0,0,0,0,0.033112
2018/06/20 00:49:00.000,n,200,4.32,3.96,4.68,11.1,55.3,1020.52,0,0,0,0,0.032196
2018/06/20 00:50:00.005,n,205,3.24,2.52,4.68,11.1,54.8,1020.52,0,0,0,0,0.027847
2018/06/20 00:51:00.001,n,210,2.52,1.8,3.24,11.1,54.7,1020.62,0,0,0,0,0.027847
2018/06/20 00:52:00.000,n,158,2.16,1.44,2.88,11.1,55.2,1020.62,0,0,0,0,0.023499
2018/06/20 00:53:00.012,n,269,0.72,0,1.08,11.1,55.1,1020.62,0,0,0,0,0.025253
2018/06/20 00:54:00.010,n,218,2.52,2.16,2.88,11.1,55.2,1020.62,0,0,0,0,0.021782
2018/06/20 00:55:00.000,n,233,1.08,0.72,1.44,11.1,55.3,1020.62,0,0,0,0,0.026131
2018/06/20 00:56:00.000,n,324,1.8,1.08,3.24,11.1,54.6,1020.62,0,0,0,0,0.022659
2018/06/20 00:57:00.000,n,235,1.44,1.08,1.8,11.1,54.8,1020.62,0,0,0,0,0.025253
2018/06/20 00:58:00.000,n,215,1.8,1.44,2.16,11.1,55,1020.62,0,0,0,0,0.025253
2018/06/20 00:59:00.000,n,193,3.24,2.88,3.6,11,55.4,1020.62,0,0,0,0,0.023499
2018/06/20 01:00:00.007,n,189,1.08,0.72,1.8,11,55.2,1020.62,0,0,0,0,0.025253
2018/06/20 01:01:00.004,n,230,3.96,3.6,3.96,11,55.5,1020.62,0,0,0,0,0.020027
2018/06/20 01:02:00.002,n,275,8.64,7.56,10.440002,11,54.8,1020.62,0,0,0,0,0.023499
2018/06/20 01:03:00.015,n,264,5.04,3.6,7.56,11,54,1020.52,0,0,0,0,0.022659
2018/06/20 01:04:00.000,n,245,4.32,3.6,4.68,11,54.3,1020.52,0,0,0,0,0.023499
2018/06/20 01:05:00.000,n,266,1.8,0.72,2.52,11.1,54.1,1020.52,0,0,0,0,0.021782
2018/06/20 01:06:00.000,n,312,2.16,2.16,3.24,11.1,54,1020.52,0,0,0,0,0.022659
2018/06/20 01:07:00.005,n,298,3.6,2.52,5.04,11.1,53.9,1020.52,0,0,0,0,0.020866
2018/06/20 01:08:00.002,n,249,2.88,0.72,4.68,11.1,53.3,1020.52,0,0,0,0,0.021782
2018/06/20 01:09:00.000,n,255,7.92,2.52,10.440002,11.2,52.6,1020.52,0,0,0,0,0.025253
2018/06/20 01:10:00.000,n,245,9.36,9,10.8,11.3,52.8,1020.52,0,0,0,0,0.018272
2018/06/20 01:11:00.010,n,231,3.96,2.52,6.12,11.4,52.8,1020.52,0,0,0,0,0.023499
2018/06/20 01:12:00.007,n,242,5.76,1.44,8.64,11.4,52.6,1020.62,0,0,0,0,0.024376
2018/06/20 01:13:00.000,n,246,4.68,3.6,5.76,11.5,52.9,1020.62,0,0,0,0,0.028725
2018/06/20 01:14:00.001,n,245,4.68,3.96,6.12,11.4,53,1020.62,0,0,0,0,0.027847
2018/06/20 01:15:00.000,n,269,3.24,2.52,3.96,11.4,53.4,1020.62,0,0,0,0,0.029602
2018/06/20 01:16:00.000,n,268,4.68,3.96,7.56,11.4,53.4,1020.62,0,0,0,0,0.025215
2018/06/20 01:17:00.000,n,272,3.24,2.16,4.68,11.4,53.6,1020.62,0,0,0,0,0.027008
2018/06/20 01:18:00.008,n,252,4.32,2.88,6.48,11.4,54,1020.62,0,0,0,0,0.029602
2018/06/20 01:19:00.005,n,277,3.24,2.16,3.96,11.3,54,1020.62,0,0,0,0,0.029602
2018/06/20 01:20:00.002,n,257,6.48,5.76,7.56,11.3,54.4,1020.62,0,0,0,0,0.027847
2018/06/20 01:21:00.015,n,241,6.84,5.04,7.56,11.3,54.6,1020.52,0,0,0,0,0.037422
2018/06/20 01:22:00.000,n,238,2.16,1.8,2.88,11.2,54.9,1020.52,0,0,0,0,0.033073
2018/06/20 01:23:00.000,n,255,3.24,2.16,4.68,11.2,54.8,1020.52,0,0,0,0,0.030479
2018/06/20 01:24:00.000,n,269,2.16,1.44,2.88,11.2,55.3,1020.52,0,0,0,0,0.027008
2018/06/20 01:25:00.004,n,229,3.6,2.52,3.96,11.1,55.5,1020.62,0,0,0,0,0.025215
2018/06/20 01:26:00.001,n,299,2.88,2.52,3.24,11.1,55.7,1020.62,0,0,0,0,0.027847
2018/06/20 01:27:00.000,n,254,3.96,3.24,4.68,11.1,55.7,1020.62,0,0,0,0,0.032196
2018/06/20 01:28:00.011,n,208,1.08,0.36,1.44,11,55.9,1020.62,0,0,0,0,0.027008
2018/06/20 01:29:00.009,n,209,4.32,2.88,5.4,11,55.8,1020.62,0,0,0,0,0.032196
2018/06/20 01:30:00.006,n,202,2.52,1.08,3.6,11,55.9,1020.62,0,0,0,0,0.025215
2018/06/20 01:31:00.000,n,200,1.44,0.72,1.8,11,55.9,1020.62,0,0,0,0,0.031357
2018/06/20 01:32:00.000,n,143,0.72,0.36,1.08,11,55.7,1020.62,0,0,0,0,0.029602
2018/06/20 01:33:00.000,n,186,5.76,4.32,7.92,10.9,55.7,1020.52,0,0,0,0,0.035706
2018/06/20 01:34:00.000,n,186,1.8,1.08,2.16,11,56.2,1020.52,0,0,0,0,0.026131
2018/06/20 01:35:00.007,n,201,0.72,0,1.44,11,56.1,1020.62,0,0,0,0,0.035706
2018/06/20 01:36:00.004,n,221,4.68,3.24,6.84,11,55.8,1020.62,0,0,0,0,0.031357
2018/06/20 01:37:00.001,n,172,6.12,3.24,7.56,11,56.3,1020.62,0,0,0,0,0.028725
2018/06/20 01:38:00.014,n,175,6.12,5.04,6.48,11,56.3,1020.72,0,0,0,0,0.027847
2018/06/20 01:39:00.011,n,166,3.96,3.24,4.32,11,57.1,1020.72,0,0,0,0,0.027847
2018/06/20 01:40:00.000,n,168,5.04,4.32,6.48,11,57.4,1020.72,0,0,0,0,0.025215
2018/06/20 01:41:00.000,n,153,5.4,3.96,6.84,11,58.4,1020.72,0,0,0,0,0.027847
2018/06/20 01:42:00.001,n,151,7.56,6.84,7.92,10.9,59.2,1020.72,0,0,0,0,0.029602
2018/06/20 01:43:00.000,n,169,6.12,4.32,7.56,10.7,59.4,1020.72,0,0,0,0,0.025215
2018/06/20 01:44:00.000,n,172,5.76,5.04,6.84,10.6,59.4,1020.82,0,0,0,0,0.027847
2018/06/20 01:45:00.008,n,166,7.2,6.84,7.56,10.5,59.5,1020.82,0,0,0,0,0.025215
2018/06/20 01:46:00.005,n,163,5.04,4.32,6.12,10.4,59.8,1020.82,0,0,0,0,0.026131
2018/06/20 01:47:00.002,n,164,5.4,5.04,6.84,10.4,60.3,1020.82,0,0,0,0,0.024376
2018/06/20 01:48:00.000,n,153,5.76,5.04,6.84,10.3,60.6,1020.82,0,0,0,0,0.026131
2018/06/20 01:49:00.000,n,180,6.12,5.76,6.48,10.3,60.9,1020.92,0,0,0,0,0.025215
2018/06/20 01:50:00.000,n,168,5.4,5.04,6.12,10.2,61.1,1020.92,0,0,0,0,0.024376
2018/06/20 01:51:00.000,n,151,6.12,5.76,6.48,10.2,61.3,1020.92,0,0,0,0,0.025215
2018/06/20 01:52:00.005,n,156,5.04,5.04,5.4,10.2,61.9,1020.92,0,0,0,0,0.021744
2018/06/20 01:53:00.003,n,168,8.28,7.56,8.64,10.2,61.5,1020.92,0,0,0,0,0.024376
2018/06/20 01:54:00.000,n,162,4.32,1.44,6.12,10.2,61.4,1020.92,0,0,0,0,0.024376
2018/06/20 01:55:00.000,n,170,6.84,5.76,7.56,10.2,61.2,1020.92,0,0,0,0,0.025215
2018/06/20 01:56:00.011,n,170,7.2,6.48,7.56,10.1,60.9,1020.92,0,0,0,0,0.024376
2018/06/20 01:57:00.008,n,163,6.12,5.76,6.84,10.1,60.9,1020.92,0,0,0,0,0.022659
2018/06/20 01:58:00.000,n,149,7.2,6.84,7.2,10.1,61,1020.92,0,0,0,0,0.025215
2018/06/20 01:59:00.001,n,166,6.12,5.04,6.84,10.1,61.4,1020.92,0,0,0,0,0.028725
2018/06/20 02:00:00.000,n,163,7.56,7.2,7.56,10.1,61.6,1020.82,0,0,0,0,0.031357
2018/06/20 02:01:00.000,n,154,3.6,2.88,4.32,10.1,61.6,1020.82,0,0,0,0,0.022659
2018/06/20 02:02:00.000,n,229,3.6,3.24,3.96,10.1,61.6,1020.82,0,0,0,0,0.021744
2018/06/20 02:03:00.007,n,225,3.6,3.24,3.96,10,61.4,1020.82,0,0,0,0,0.030479
2018/06/20 02:04:00.002,n,265,2.52,2.16,2.88,10,61.4,1020.72,0,0,0,0,0.033073
2018/06/20 02:05:00.000,n,227,3.96,3.24,4.68,10,60.9,1020.72,0,0,0,0,0.029602
2018/06/20 02:06:00.011,n,344,1.44,1.08,1.8,10.1,60.9,1020.72,0,0,0,0,0.033073
2018/06/20 02:07:00.000,n,249,5.4,4.68,5.76,10.1,60.4,1020.72,0,0,0,0,0.030479
2018/06/20 02:08:00.000,n,261,6.48,6.12,6.48,10.1,60.1,1020.72,0,0,0,0,0.032234
2018/06/20 02:09:00.004,n,232,3.96,3.6,4.68,10.1,59.8,1020.72,0,0,0,0,0.03746
2018/06/20 02:10:00.001,n,229,1.8,1.08,1.8,10.2,59.7,1020.82,0,0,0,0,0.030479
2018/06/20 02:11:00.000,n,270,2.88,1.44,3.6,10.2,59.7,1020.82,0,0,0,0,0.028725
2018/06/20 02:12:00.000,n,234,2.52,1.8,3.24,10.2,59.7,1020.82,0,0,0,0,0.029602
2018/06/20 02:13:00.009,n,222,3.6,3.6,4.68,10.2,59.9,1020.92,0,0,0,0,0.028725
2018/06/20 02:14:00.006,n,203,3.6,2.88,4.32,10.2,60,1020.92,0,0,0,0,0.026131
2018/06/20 02:15:00.002,n,179,4.32,3.6,5.4,10.3,59.7,1020.92,0,0,0,0,0.032234
2018/06/20 02:16:00.001,n,169,2.16,1.08,2.52,10.3,59.5,1020.92,0,0,0,0,0.029602
2018/06/20 02:17:00.000,n,198,3.6,2.88,3.96,10.4,59.6,1020.92,0,0,0,0,0.036583
2018/06/20 02:18:00.000,n,176,2.88,1.8,3.6,10.4,59.4,1020.92,0,0,0,0,0.028725
2018/06/20 02:19:00.000,n,221,2.88,2.16,5.04,10.4,59.1,1020.92,0,0,0,0,0.027008
2018/06/20 02:20:00.007,n,215,2.88,2.52,3.6,10.4,58.7,1020.92,0,0,0,0,0.023499
2018/06/20 02:21:00.004,n,213,2.16,1.8,2.16,10.4,59.5,1021.02,0,0,0,0,0.024376
2018/06/20 02:22:00.001,n,247,4.32,4.32,4.68,10.4,59.1,1021.02,0,0,0,0,0.026131
2018/06/20 02:23:00.000,n,246,2.88,2.52,2.88,10.4,58.8,1021.02,0,0,0,0,0.024376
2018/06/20 02:24:00.012,n,178,4.68,3.96,4.68,10.4,58.8,1021.02,0,0,0,0,0.024376
2018/06/20 02:25:00.000,n,196,1.8,1.08,3.24,10.4,58.8,1021.02,0,0,0,0,0.022659
2018/06/20 02:26:00.000,n,262,4.32,3.96,4.68,10.4,58.4,1021.02,0,0,0,0,0.023499
2018/06/20 02:27:00.003,n,290,0.72,0,1.08,10.5,58.5,1021.02,0,0,0,0,0.026131
2018/06/20 02:28:00.000,n,225,2.52,2.16,3.24,10.5,58.3,1021.02,0,0,0,0,0.027008
2018/06/20 02:29:00.000,n,254,7.92,6.48,8.64,10.5,58.1,1021.02,0,0,0,0,0.026131
2018/06/20 02:30:00.010,n,276,5.4,2.88,6.48,10.5,58,1021.02,0,0,0,0,0.025253
2018/06/20 02:31:00.007,n,199,2.52,1.44,2.88,10.5,57.8,1021.02,0,0,0,0,0.026131
2018/06/20 02:32:00.004,n,170,4.68,3.96,5.4,10.6,58.1,1021.02,0,0,0,0,0.032234
2018/06/20 02:33:00.002,n,150,1.8,0.72,3.24,10.6,59.3,1021.02,0,0,0,0,0.021744
2018/06/20 02:34:00.000,n,157,5.4,3.96,6.48,10.6,60.3,1021.02,0,0,0,0,0.025253
2018/06/20 02:35:00.000,n,174,3.24,2.88,4.32,10.5,60.7,1021.02,0,0,0,0,0.029602
2018/06/20 02:36:00.000,n,156,4.68,4.32,5.04,10.3,61.5,1021.02,0,0,0,0,0.022659
2018/06/20 02:37:00.006,n,166,4.32,3.96,4.32,10.2,62,1020.92,0,0,0,0,0.020027
2018/06/20 02:38:00.003,n,158,6.48,6.12,6.84,10.1,62.4,1020.92,0,0,0,0,0.024376
2018/06/20 02:39:00.000,n,196,3.6,3.24,3.96,10,62.7,1020.92,0,0,0,0,0.024376
2018/06/20 02:40:00.000,n,236,1.8,1.44,2.16,10,62.8,1020.92,0,0,0,0,0.022659
2018/06/20 02:41:00.010,n,202,1.44,1.08,1.44,10,62.9,1020.92,0,0,0,0,0.031357
2018/06/20 02:42:00.004,n,180,3.24,2.16,4.68,10,62.6,1020.92,0,0,0,0,0.033112
2018/06/20 02:43:00.000,n,194,0.72,0,1.08,10,62.3,1020.92,0,0,0,0,0.031357
2018/06/20 02:44:00.000,n,228,2.16,1.8,2.16,10,61.8,1020.92,0,0,0,0,0.028763
2018/06/20 02:45:00.000,n,183,3.6,2.52,4.32,10.1,61.6,1020.92,0,0,0,0,0.030479
2018/06/20 02:46:00.000,n,199,7.56,6.12,7.92,10.1,61,1021.02,0,0,0,0,0.030479
2018/06/20 02:47:00.004,n,190,5.04,3.6,6.12,10.2,61.1,1021.02,0,0,0,0,0.028763
2018/06/20 02:48:00.001,n,201,3.24,1.44,4.32,10.2,60.9,1021.02,0,0,0,0,0.033112
2018/06/20 02:49:00.000,n,225,3.6,2.88,3.96,10.2,60.7,1021.02,0,0,0,0,0.033989
2018/06/20 02:50:00.013,n,168,2.88,1.08,4.68,10.3,60.6,1021.02,0,0,0,0,0.038338
2018/06/20 02:51:00.010,n,358,0.36,0,0.36,10.3,60.4,1020.92,0,0,0,0,0.031357
2018/06/20 02:52:00.000,n,271,3.6,2.52,4.32,10.3,60.3,1020.92,0,0,0,0,0.03746
2018/06/20 02:53:00.003,n,255,5.4,4.68,6.84,10.2,60,1020.92,0,0,0,0,0.036621
2018/06/20 02:54:00.000,n,258,3.24,1.8,5.4,10.3,59.9,1020.92,0,0,0,0,0.039177
2018/06/20 02:55:00.000,n,253,9.72,5.76,12.6,10.3,59.5,1020.92,0,0,0,0,0.030479
2018/06/20 02:56:00.000,n,253,2.88,1.44,3.6,10.3,58.9,1020.92,0,0,0,0,0.034828
2018/06/20 02:57:00.008,n,181,6.48,5.4,6.84,10.4,58.9,1020.92,0,0,0,0,0.036621
2018/06/20 02:58:00.005,n,163,3.6,2.88,4.32,10.4,58.9,1020.92,0,0,0,0,0.033989
2018/06/20 02:59:00.001,n,217,2.52,1.44,3.6,10.5,58.8,1021.02,0,0,0,0,0.028763
2018/06/20 03:00:00.015,n,149,4.32,3.6,4.68,10.5,59,1021.02,0,0,0,0,0.031357
2018/06/20 03:01:00.000,n,152,9,8.64,9.72,10.5,60.3,1021.02,0,0,0,0,0.02964
2018/06/20 03:02:00.000,n,159,5.04,4.32,5.76,10.4,61,1021.02,0,0,0,0,0.02964
2018/06/20 03:03:00.000,n,145,9,8.64,9.36,10.2,62.5,1021.02,0,0,0,0,0.031357
2018/06/20 03:04:00.005,n,153,6.48,6.12,6.48,10.1,63.1,1021.02,0,0,0,0,0.02964
2018/06/20 03:05:00.003,n,154,3.24,2.52,3.96,10,63.2,1021.02,0,0,0,0,0.032234
2018/06/20 03:06:00.000,n,151,6.12,5.4,6.84,9.9,63.2,1021.02,0,0,0,0,0.036621
2018/06/20 03:07:00.004,n,179,4.32,3.96,4.68,9.9,63.4,1021.02,0,0,0,0,0.030479
2018/06/20 03:08:00.009,n,146,2.16,0.72,3.96,9.9,63.2,1021.02,0,0,0,0,0.032234
2018/06/20 03:09:00.014,n,163,4.32,3.6,5.04,9.9,63.2,1021.02,0,0,0,0,0.027885
2018/06/20 03:10:00.000,n,166,5.4,3.96,6.48,9.9,63,1021.02,0,0,0,0,0.030479
2018/06/20 03:11:00.000,n,167,6.84,6.12,7.2,9.9,62.7,1021.02,0,0,0,0,0.031357
2018/06/20 03:12:00.000,n,148,4.32,3.24,5.04,9.9,62.6,1021.02,0,0,0,0,0.032234
2018/06/20 03:13:00.001,n,161,5.76,5.04,6.48,9.9,62.7,1021.02,0,0,0,0,0.028763
2018/06/20 03:14:00.006,n,171,5.76,5.04,6.12,9.9,62.7,1021.12,0,0,0,0,0.028763
2018/06/20 03:15:00.000,n,163,6.84,5.04,7.56,9.9,62.4,1021.12,0,0,0,0,0.027885
2018/06/20 03:16:00.001,n,178,6.84,6.12,7.92,10,61.7,1021.12,0,0,0,0,0.028763
2018/06/20 03:17:00.000,n,227,3.24,2.88,3.6,10,61.8,1021.12,0,0,0,0,0.028763
2018/06/20 03:18:00.011,n,240,1.44,1.08,1.44,10,61.7,1021.12,0,0,0,0,0.027885
2018/06/20 03:19:00.000,n,255,2.16,1.08,2.88,10,61.6,1021.12,0,0,0,0,0.027885
2018/06/20 03:20:00.000,n,209,2.88,2.52,3.24,10,61.5,1021.12,0,0,0,0,0.027008
2018/06/20 03:21:00.002,n,137,1.8,1.08,2.16,10,61.4,1021.22,0,0,0,0,0.031357
2018/06/20 03:22:00.000,n,239,2.16,1.44,2.52,10,61.4,1021.22,0,0,0,0,0.022659
2018/06/20 03:23:00.000,n,263,2.16,0.72,3.24,10,61.3,1021.22,0,0,0,0,0.026131
2018/06/20 03:24:00.000,n,208,1.44,0.72,2.16,10,61.2,1021.22,0,0,0,0,0.028763
2018/06/20 03:25:00.007,n,205,2.88,2.16,3.24,10.1,61.2,1021.22,0,0,0,0,0.033989
2018/06/20 03:26:00.005,n,233,2.16,1.44,2.88,10.1,61,1021.22,0,0,0,0,0.024414
2018/06/20 03:27:00.002,n,224,2.88,1.08,3.96,10.1,60.9,1021.22,0,0,0,0,0.02964
2018/06/20 03:28:00.000,n,233,1.08,0.36,1.8,10.1,60.8,1021.22,0,0,0,0,0.023499
2018/06/20 03:29:00.000,n,243,1.8,0.72,1.8,10.1,60.8,1021.22,0,0,0,0,0.027008
2018/06/20 03:30:00.000,n,142,1.8,1.44,2.52,10.1,61,1021.12,0,0,0,0,0.031357
2018/06/20 03:31:00.007,n,176,1.08,0.72,1.44,10.1,60.9,1021.12,0,0,0,0,0.033112
2018/06/20 03:32:00.005,n,155,0.72,0.72,1.08,10.1,61,1021.12,0,0,0,0,0.023499
2018/06/20 03:33:00.001,n,299,1.8,0.36,3.24,10.1,61,1021.12,0,0,0,0,0.022659
2018/06/20 03:34:00.000,n,157,3.6,2.16,4.32,10.1,61.3,1021.12,0,0,0,0,0.025291
2018/06/20 03:35:00.012,n,145,1.44,1.08,2.16,10.1,61.3,1021.22,0,0,0,0,0.020943
2018/06/20 03:36:00.009,n,213,2.88,2.16,3.96,10.1,61.3,1021.12,0,0,0,0,0.027008
2018/06/20 03:37:00.000,n,161,2.16,1.08,2.52,10.2,61.3,1021.12,0,0,0,0,0.031357
2018/06/20 03:38:00.000,n,278,1.8,1.44,2.16,10.1,61.4,1021.12,0,0,0,0,0.027008
2018/06/20 03:39:00.001,n,46,0.72,0.36,1.08,10.1,61.4,1021.12,0,0,0,0,0.023499
2018/06/20 03:40:00.000,n,185,4.68,3.6,5.4,10.1,61.4,1021.12,0,0,0,0,0.022659
2018/06/20 03:41:00.000,n,182,1.8,1.44,2.16,10.1,61.4,1021.12,0,0,0,0,0.01915
2018/06/20 03:42:00.008,n,115,1.08,0.36,1.8,10.1,61.7,1021.12,0,0,0,0,0.021782
2018/06/20 03:43:00.005,n,134,3.6,1.8,4.68,10.1,61.9,1021.12,0,0,0,0,0.022659
2018/06/20 03:44:00.002,n,177,2.88,2.52,3.6,10,62.3,1021.12,0,0,0,0,0.028763
2018/06/20 03:45:00.000,n,168,3.96,3.24,4.32,10,62.4,1021.12,0,0,0,0,0.022659
2018/06/20 03:46:00.000,n,218,5.4,3.96,6.84,10,62.4,1021.12,0,0,0,0,0.01915
2018/06/20 03:47:00.000,n,161,5.04,4.68,5.76,9.9,62.5,1021.12,0,0,0,0,0.021782
2018/06/20 03:48:00.000,n,173,3.96,3.6,4.32,9.9,62.7,1021.12,0,0,0,0,0.024414
2018/06/20 03:49:00.005,n,162,8.64,7.56,9.36,9.9,62.8,1021.12,0,0,0,0,0.023499
2018/06/20 03:50:00.000,n,163,6.84,6.48,7.2,9.9,63.2,1021.12,0,0,0,0,0.025291
2018/06/20 03:51:00.000,n,172,6.84,6.12,7.2,9.8,63.4,1021.12,0,0,0,0,0.026131
2018/06/20 03:52:00.005,n,155,3.6,2.16,5.04,9.8,63.7,1021.12,0,0,0,0,0.022659
2018/06/20 03:53:00.010,n,161,4.68,1.8,5.76,9.8,64,1021.12,0,0,0,0,0.021782
2018/06/20 03:54:00.015,n,155,3.6,3.24,3.96,9.7,64,1021.12,0,0,0,0,0.021782
2018/06/20 03:55:00.000,n,157,7.56,7.2,7.92,9.7,64,1021.12,0,0,0,0,0.020943
2018/06/20 03:56:00.000,n,163,6.48,6.12,7.2,9.7,63.8,1021.22,0,0,0,0,0.022659
2018/06/20 03:57:00.000,n,158,5.04,2.88,6.84,9.7,63.6,1021.22,0,0,0,0,0.022659
2018/06/20 03:58:00.004,n,166,4.32,3.24,5.4,9.7,63.4,1021.22,0,0,0,0,0.023499
2018/06/20 03:59:00.000,n,140,4.32,3.6,4.68,9.7,63.2,1021.22,0,0,0,0,0.021782
2018/06/20 04:00:00.000,n,151,5.4,4.68,6.12,9.7,63.1,1021.22,0,0,0,0,0.027885
2018/06/20 04:01:00.003,n,160,5.4,5.04,6.12,9.7,62.6,1021.22,0,0,0,0,0.021782
2018/06/20 04:02:00.008,n,163,5.4,4.68,5.76,9.6,62.4,1021.22,0,0,0,0,0.018311
2018/06/20 04:03:00.013,n,173,5.76,4.32,6.84,9.6,62.6,1021.22,0,0,0,0,0.021782
2018/06/20 04:04:00.002,n,171,3.6,3.6,3.96,9.6,62.6,1021.22,0,0,0,0,0.020027
2018/06/20 04:05:00.000,n,165,5.4,5.04,6.48,9.6,62.5,1021.12,0,0,0,0,0.020943
2018/06/20 04:06:00.000,n,202,2.16,0.72,3.24,9.6,62.5,1021.22,0,0,0,0,0.016556
2018/06/20 04:07:00.000,n,160,2.16,1.44,2.52,9.6,62.5,1021.22,0,0,0,0,0.015678
2018/06/20 04:08:00.005,n,157,3.6,3.24,4.32,9.6,62.4,1021.22,0,0,0,0,0.021782
2018/06/20 04:09:00.010,n,171,4.32,3.24,5.4,9.6,62.4,1021.22,0,0,0,0,0.027885
2018/06/20 04:10:00.012,n,130,2.88,1.44,4.68,9.6,62.3,1021.22,0,0,0,0,0.035706
2018/06/20 04:11:00.001,n,176,3.6,2.52,4.32,9.6,62.5,1021.22,0,0,0,0,0.032234
2018/06/20 04:12:00.006,n,154,6.48,6.12,6.48,9.6,62.5,1021.22,0,0,0,0,0.032234
2018/06/20 04:13:00.000,n,155,7.92,7.2,8.28,9.6,62.5,1021.22,0,0,0,0,0.02964
2018/06/20 04:14:00.000,n,159,7.2,6.84,7.56,9.6,62.5,1021.32,0,0,0,0,0.030479
2018/06/20 04:15:00.004,n,150,5.76,5.04,6.48,9.6,62.4,1021.22,0,0,0,0,0.040054
2018/06/20 04:16:00.000,n,151,6.48,6.12,6.84,9.5,62.4,1021.22,0,0,0,0,0.02964
2018/06/20 04:17:00.000,n,157,4.68,3.96,5.04,9.5,62.8,1021.22,0,0,0,0,0.031357
2018/06/20 04:18:00.004,n,239,2.52,1.44,3.24,9.5,62.8,1021.22,0,0,0,0,0.033073
2018/06/20 04:19:00.008,n,316,0.36,0.36,0.72,9.5,62.8,1021.22,0,0,0,0,0.030479
2018/06/20 04:20:00.014,n,257,1.08,0.72,1.44,9.5,62.6,1021.22,0,0,0,0,0.030479
2018/06/20 04:21:00.004,n,219,3.96,3.6,4.68,9.5,62.6,1021.12,0,0,0,0,0.030479
2018/06/20 04:22:00.000,n,170,2.88,2.52,3.96,9.6,62.7,1021.12,0,0,0,0,0.032234
2018/06/20 04:23:00.000,n,187,1.08,0.72,1.44,9.6,62.7,1021.12,0,0,0,0,0.031357
2018/06/20 04:24:00.002,n,161,2.88,2.16,3.6,9.6,62.5,1021.22,0,0,0,0,0.02964
2018/06/20 04:25:00.006,n,181,1.8,0.72,2.88,9.6,62.5,1021.12,0,0,0,0,0.028725
2018/06/20 04:26:00.000,n,180,3.24,2.88,3.96,9.7,62.4,1021.12,0,0,0,0,0.024376
2018/06/20 04:27:00.000,n,162,5.04,4.32,5.76,9.7,62.4,1021.02,0,0,0,0,0.02964
2018/06/20 04:28:00.005,n,292,1.08,0.72,1.44,9.7,62.4,1021.02,0,0,0,0,0.027885
2018/06/20 04:29:00.010,n,244,2.52,2.52,2.88,9.7,62.5,1021.02,0,0,0,0,0.031357
2018/06/20 04:30:00.016,n,233,0.72,0.36,1.08,9.7,62.3,1020.92,0,0,0,0,0.030479
2018/06/20 04:31:00.000,n,296,3.24,2.88,3.6,9.7,62.3,1020.92,0,0,0,0,0.027885
2018/06/20 04:32:00.000,n,192,2.16,1.44,2.88,9.7,62.3,1020.92,0,0,0,0,0.031357
2018/06/20 04:33:00.000,n,283,2.88,1.08,3.6,9.6,62.3,1020.92,0,0,0,0,0.034828
2018/06/20 04:34:00.003,n,357,1.8,0.36,2.16,9.6,62.5,1020.92,0,0,0,0,0.027008
2018/06/20 04:35:00.008,n,356,1.44,1.08,1.8,9.6,62.4,1020.92,0,0,0,0,0.027008
2018/06/20 04:36:00.000,n,110,0.72,0,0.72,9.6,62.1,1020.92,0,0,0,0,0.027885
2018/06/20 04:37:00.002,n,123,2.16,1.8,2.52,9.6,62.5,1020.92,0,0,0,0,0.028725
2018/06/20 04:38:00.008,n,82,1.08,0.36,1.44,9.6,62.6,1020.92,0,0,0,0,0.028725
2018/06/20 04:39:00.013,n,128,2.16,1.8,2.52,9.6,62.7,1020.92,0,0,0,0,0.02964
2018/06/20 04:40:00.002,n,153,7.56,5.4,8.64,9.6,63.2,1021.02,0,0,0,0,0.027885
2018/06/20 04:41:00.000,n,165,6.12,5.4,6.48,9.6,64,1021.02,0,0,0,0,0.027008
2018/06/20 04:42:00.000,n,165,7.2,6.48,7.56,9.6,64.5,1021.02,0,0,0,0,0.027008
2018/06/20 04:43:00.000,n,153,7.2,5.76,7.92,9.5,65,1021.02,0,0,0,0,0.024376
2018/06/20 04:44:00.004,n,160,5.76,5.04,6.12,9.5,65.4,1021.02,0,0,0,0,0.028725
2018/06/20 04:45:00.010,n,179,7.2,6.48,7.56,9.4,65.9,1021.02,0,0,0,0,0.021744
2018/06/20 04:46:00.000,n,199,2.88,2.52,3.96,9.4,65.6,1021.02,0,0,0,0,0.026131
2018/06/20 04:47:00.005,n,243,1.44,0.72,2.16,9.5,65.4,1021.02,0,0,0,0,0.033989
2018/06/20 04:48:00.010,n,173,5.04,4.32,6.12,9.5,65,1021.02,0,0,0,0,0.026131
2018/06/20 04:49:00.000,n,156,4.32,3.24,4.68,9.5,64.800004,1021.12,0,0,0,0,0.024376
2018/06/20 04:50:00.000,n,174,5.04,4.32,6.12,9.5,64.699996,1021.12,0,0,0,0,0.027847
2018/06/20 04:51:00.005,n,165,5.4,5.04,6.12,9.5,64.5,1021.12,0,0,0,0,0.034828
2018/06/20 04:52:00.000,n,163,7.92,7.56,8.28,9.5,64.4,1021.12,0,0,0,0,0.033112
2018/06/20 04:53:00.000,n,162,7.56,6.12,9,9.4,64.6,1021.12,0,0,0,0,0.030479
2018/06/20 04:54:00.004,n,171,5.4,4.32,6.84,9.3,64.699996,1021.12,0,0,0,0,0.029602
2018/06/20 04:55:00.009,n,156,7.92,7.2,8.64,9.3,64.9,1021.12,0,0,0,0,0.029602
2018/06/20 04:56:00.000,n,169,9,8.64,9.72,9.2,65,1021.12,0,0,0,0,0.028763
2018/06/20 04:57:00.006,n,168,7.92,7.2,8.64,9.3,65.300004,1021.22,0,0,0,0,0.032234